Starlink 31802

operational
NORAD ID: 59636 Int'l Des: 2024-082 Owner: SPXS Country: US Constellation: starlink
LEOCIRCULAR

关于 Starlink 31802

正在加载描述...

实时位置

正在加载3D地球...

即将过境

高度历史

Altitude vs Time

uPlot chart will show altitude changes over time

两行轨道根数

1 59636U 24082F 25305.56170772 -.00000117 00000-0 52717-5 0 9992
2 59636 43.0012 143.6430 0001338 275.0801 84.9898 15.27576929 85215
Epoch: Nov 1, 2025 • Age: 27 hours

当前状态

高度 483.9 km
速度 7.62 km/s
星下点 -5.93°S, 26.6°E
发射日期 May 3, 2024
运行时间 1.5 years
类型 internet

技术详情

分类 Payload
质量 730.00 kg
干质量 700.00 kg
总质量 730.00 kg
长度 0.30 m
直径 4.10 m
跨度 29.00 m
形状 Box + pan
制造商 SPXS
平台类型 Starlink V2M
阶段状态 In Orbit
所有者/国家 SPXS/US

大型星座

Loading constellations...